User: anonymous   Login
Location: Unspecified
(0.0000°N, 0.0000°E)
Time: 16:42:02
(UTC+00:00)
Language:

SICRAL 1B - Orbit

View from above orbital plane
View from above orbital plane
View from above satellite
View from above satellite

Ground track
Ground track

The orbit data is extracted from the following two-line orbital elements,

1 34810U 09020A   17162.49203663 0.00000000  00000-0  00000-0 0    00
2 34810   0.1277  88.9550 0004227 313.7637  46.2327  1.00270000    09
Epoch (UTC): 11 June 2017 11:48:31
Eccentricity: 0.0004227
inclination: 0.1277°
perigee height: 35769 km
apogee height: 35804 km
right ascension of ascending node: 88.9550°
argument of perigee: 313.7637°
revolutions per day: 1.00270000
mean anomaly at epoch: 46.2327°
orbit number at epoch: 0

The dashed part of the orbit path shows where the satellite is in the earth's shadow,  

DLR